Flag for U.S.A. Weather past 2 weeks in Chico, California, U.S.A.

Now
57 °F

Broken clouds.


Feels Like: 53 °F
Forecast: 45 / 61 °F
Wind: 17 mph from Southeast

Location: Chico Municipal

Current Time: Mar 2, 2015 at 11:30:53 AM

Latest Report: Mar 2, 2015 at 10:56 AM


Visibility: N/A

Pressure: 29.84 "Hg

Humidity: 55%

Dew point: 41 °F

Location of ChicoLocation

Historic Weather in Chico — Graph

°F

Chico temperature yesterday

Maximum temperature yesterday: 64 °F (at 1:50 PM)
Minimum temperature yesterday: 37 °F (at 6:48 AM)
Average temperature yesterday: 49 °F

Past Weeks' High & Low Weather Summary

 TemperatureHumidityPressure
High72 °F (Feb 15, 2:56 PM)100% (Feb 17, 2:15 AM)30.36 "Hg (Feb 17, 2:15 AM)
Low36 °F (Feb 24, 3:15 AM)12% (Feb 22, 6:15 PM)29.64 "Hg (Feb 27, 4:47 PM)
Average52 °F65%30.01 "Hg
* Reported Feb 15 9:47 AM — Mar 2 9:47 AM, Chico, Weather by CustomWeather, © 2015

Note: Actual official high and low records may vary slightly from our data, if they occured in-between our weather recording intervals... More about our weather records

Advertising

Chico weather history for previous 24 hours

 ConditionsComfort  
Time TempWeatherWind HumidityBarometerVisibility
9:47 AM
Mon, Mar 2
55 °FBroken clouds.16 mph59%29.82 "Hg25 mi
8:47 AM54 °FPartly sunny.17 mph54%29.81 "Hg40 mi
7:47 AM48 °FPartly sunny.6 mph66%29.80 "Hg40 mi
6:55 AM45 °FLight rain. Partly sunny.6 mph81%29.78 "Hg40 mi
5:35 AM46 °FMostly cloudy.7 mph62%29.77 "Hg10 mi
5:15 AM46 °FOvercast.8 mph62%29.77 "Hg10 mi
4:55 AM48 °FOvercast.8 mph54%29.77 "Hg10 mi
4:35 AM46 °FOvercast.6 mph57%29.78 "Hg10 mi
4:15 AM45 °FOvercast.No wind61%29.78 "Hg10 mi
3:55 AM45 °FPassing clouds.3 mph66%29.79 "Hg10 mi
3:35 AM45 °FPassing clouds.No wind61%29.79 "Hg10 mi
3:15 AM41 °FPassing clouds.5 mph81%29.80 "Hg10 mi
2:55 AM45 °FClear.No wind66%29.80 "Hg10 mi
2:35 AM46 °FClear.5 mph57%29.81 "Hg10 mi
2:15 AM46 °FClear.3 mph57%29.82 "Hg10 mi
1:55 AM46 °FClear.No wind57%29.83 "Hg10 mi
1:35 AM46 °FClear.No wind57%29.84 "Hg10 mi
1:15 AM46 °FClear.No wind57%29.85 "Hg10 mi
12:35 AM45 °FClear.No wind61%29.86 "Hg10 mi
12:15 AM46 °FClear.No wind57%29.86 "Hg10 mi
11:55 PM
Sun, Mar 1
48 °FClear.No wind54%29.87 "Hg10 mi
11:35 PM48 °FClear.No wind54%29.88 "Hg10 mi
11:15 PM48 °FClear.No wind54%29.88 "Hg10 mi
10:55 PM50 °FClear.No wind50%29.88 "Hg10 mi
10:35 PM50 °FClear.No wind50%29.89 "Hg10 mi
9:55 PM48 °FClear.No wind54%29.88 "Hg10 mi
9:35 PM48 °FClear.6 mph58%29.89 "Hg10 mi
9:15 PM50 °FClear.No wind50%29.88 "Hg10 mi
8:55 PM52 °FClear.5 mph47%29.88 "Hg10 mi
8:35 PM54 °FClear.5 mph44%29.88 "Hg10 mi
8:15 PM54 °FClear.3 mph44%29.89 "Hg10 mi
7:55 PM54 °FClear.8 mph44%29.89 "Hg10 mi
7:15 PM55 °FPassing clouds.7 mph41%29.89 "Hg10 mi
6:55 PM59 °FPassing clouds.6 mph34%29.89 "Hg10 mi
6:35 PM59 °FClear.7 mph36%29.89 "Hg10 mi
6:15 PM59 °FClear.7 mph36%29.89 "Hg10 mi
5:55 PM59 °FSunny.8 mph39%29.89 "Hg10 mi
3:57 PM64 °FPassing clouds.9 mph30%29.90 "Hg40 mi
2:48 PM64 °FScattered clouds.14 mph30%29.92 "Hg40 mi
1:50 PM64 °FScattered clouds.17 mph30%29.93 "Hg80 mi
12:51 PM63 °FPassing clouds.17 mph32%29.97 "Hg40 mi
Weather by CustomWeather, © 2015

See weather overviewHow to use our weather pages